Year,Month,Day,Hour,Minute,Value (Times are PST for temperature in C)
2008,06,25,00,00,11.50
2008,06,25,00,01,11.50
2008,06,25,00,02,11.60
2008,06,25,00,03,11.60
2008,06,25,00,04,11.60
2008,06,25,00,05,11.60
2008,06,25,00,06,11.70
2008,06,25,00,07,11.70
2008,06,25,00,08,11.70
2008,06,25,00,09,11.70
2008,06,25,00,10,11.80
2008,06,25,00,11,11.80
2008,06,25,00,12,11.80
2008,06,25,00,13,11.80
2008,06,25,00,14,11.80
2008,06,25,00,15,11.80
2008,06,25,00,16,11.80
2008,06,25,00,17,11.80
2008,06,25,00,18,11.80
2008,06,25,00,19,11.80
2008,06,25,00,20,11.80
2008,06,25,00,21,11.80
2008,06,25,00,22,11.80
2008,06,25,00,23,11.80
2008,06,25,00,24,11.70
2008,06,25,00,25,11.70
2008,06,25,00,26,11.70
2008,06,25,00,27,11.60
2008,06,25,00,28,11.60
2008,06,25,00,29,11.60
2008,06,25,00,30,11.60
2008,06,25,00,31,11.60
2008,06,25,00,32,11.60
2008,06,25,00,33,11.60
2008,06,25,00,34,11.60
2008,06,25,00,35,11.60
2008,06,25,00,36,11.60
2008,06,25,00,37,11.60
2008,06,25,00,38,11.60
2008,06,25,00,39,11.60
2008,06,25,00,40,11.60
2008,06,25,00,41,11.60
2008,06,25,00,42,11.60
2008,06,25,00,43,11.60
2008,06,25,00,44,11.60
2008,06,25,00,45,11.70
2008,06,25,00,46,11.70
2008,06,25,00,47,11.60
2008,06,25,00,48,11.60
2008,06,25,00,49,11.60
2008,06,25,00,50,11.60
2008,06,25,00,51,11.60
2008,06,25,00,52,11.50
2008,06,25,00,53,11.50
2008,06,25,00,54,11.50
2008,06,25,00,55,11.50
2008,06,25,00,56,11.40
2008,06,25,00,57,11.40
2008,06,25,00,58,11.40
2008,06,25,00,59,11.40
2008,06,25,01,00,11.40
2008,06,25,01,01,11.40
2008,06,25,01,02,11.30
2008,06,25,01,03,11.30
2008,06,25,01,04,11.30
2008,06,25,01,05,11.30
2008,06,25,01,06,11.30
2008,06,25,01,07,11.20
2008,06,25,01,08,11.20
2008,06,25,01,09,11.20
2008,06,25,01,10,11.20
2008,06,25,01,11,11.20
2008,06,25,01,12,11.20
2008,06,25,01,13,11.20
2008,06,25,01,14,11.20
2008,06,25,01,15,11.20
2008,06,25,01,16,11.10
2008,06,25,01,17,11.10
2008,06,25,01,18,11.10
2008,06,25,01,19,11.10
2008,06,25,01,20,11.10
2008,06,25,01,21,11.10
2008,06,25,01,22,11.10
2008,06,25,01,23,11.10
2008,06,25,01,24,11.10
2008,06,25,01,25,11.10
2008,06,25,01,26,11.10
2008,06,25,01,27,11.10
2008,06,25,01,28,11.10
2008,06,25,01,29,11.10
2008,06,25,01,30,11.10
2008,06,25,01,31,11.20
2008,06,25,01,32,11.20
2008,06,25,01,33,11.20
2008,06,25,01,34,11.20
2008,06,25,01,35,11.20
2008,06,25,01,36,11.20
2008,06,25,01,37,11.30
2008,06,25,01,38,11.30
2008,06,25,01,39,11.30
2008,06,25,01,40,11.30
2008,06,25,01,41,11.30
2008,06,25,01,42,11.30
2008,06,25,01,43,11.30
2008,06,25,01,44,11.30
2008,06,25,01,45,11.30
2008,06,25,01,46,11.30
2008,06,25,01,47,11.30
2008,06,25,01,48,11.30
2008,06,25,01,49,11.30
2008,06,25,01,50,11.30
2008,06,25,01,51,11.30
2008,06,25,01,52,11.30
2008,06,25,01,53,11.30
2008,06,25,01,54,11.30
2008,06,25,01,55,11.30
2008,06,25,01,56,11.30
2008,06,25,01,57,11.30
2008,06,25,01,58,11.30
2008,06,25,01,59,11.30
2008,06,25,02,00,11.30
2008,06,25,02,01,11.20
2008,06,25,02,02,11.20
2008,06,25,02,03,11.20
2008,06,25,02,04,11.20
2008,06,25,02,05,11.20
2008,06,25,02,06,11.20
2008,06,25,02,07,11.10
2008,06,25,02,08,11.10
2008,06,25,02,09,11.10
2008,06,25,02,10,11.10
2008,06,25,02,11,11.00
2008,06,25,02,12,11.00
2008,06,25,02,13,10.90
2008,06,25,02,14,10.90
2008,06,25,02,15,10.90
2008,06,25,02,16,10.90
2008,06,25,02,17,10.80
2008,06,25,02,18,10.80
2008,06,25,02,19,10.80
2008,06,25,02,20,10.80
2008,06,25,02,21,10.80
2008,06,25,02,22,10.80
2008,06,25,02,23,10.80
2008,06,25,02,24,10.80
2008,06,25,02,25,10.80
2008,06,25,02,26,10.80
2008,06,25,02,27,10.80
2008,06,25,02,28,10.70
2008,06,25,02,29,10.70
2008,06,25,02,30,10.70
2008,06,25,02,31,10.70
2008,06,25,02,32,10.70
2008,06,25,02,33,10.70
2008,06,25,02,34,10.70
2008,06,25,02,35,10.60
2008,06,25,02,36,10.60
2008,06,25,02,37,10.60
2008,06,25,02,38,10.60
2008,06,25,02,39,10.60
2008,06,25,02,40,10.60
2008,06,25,02,41,10.60
2008,06,25,02,42,10.60
2008,06,25,02,43,10.60
2008,06,25,02,44,10.60
2008,06,25,02,45,10.60
2008,06,25,02,46,10.60
2008,06,25,02,47,10.60
2008,06,25,02,48,10.60
2008,06,25,02,49,10.60
2008,06,25,02,50,10.60
2008,06,25,02,51,10.60
2008,06,25,02,52,10.60
2008,06,25,02,53,10.60
2008,06,25,02,54,10.60
2008,06,25,02,55,10.60
2008,06,25,02,56,10.60
2008,06,25,02,57,10.60
2008,06,25,02,58,10.60
2008,06,25,02,59,10.60
2008,06,25,03,00,10.60
2008,06,25,03,01,10.50
2008,06,25,03,02,10.50
2008,06,25,03,03,10.50
2008,06,25,03,04,10.60
2008,06,25,03,05,10.50
2008,06,25,03,06,10.50
2008,06,25,03,07,10.50
2008,06,25,03,08,10.50
2008,06,25,03,09,10.50
2008,06,25,03,10,10.50
2008,06,25,03,11,10.50
2008,06,25,03,12,10.50
2008,06,25,03,13,10.50
2008,06,25,03,14,10.50
2008,06,25,03,15,10.50
2008,06,25,03,16,10.50
2008,06,25,03,17,10.40
2008,06,25,03,18,10.40
2008,06,25,03,19,10.40
2008,06,25,03,20,10.40
2008,06,25,03,21,10.40
2008,06,25,03,22,10.30
2008,06,25,03,23,10.30
2008,06,25,03,24,10.30
2008,06,25,03,25,10.30
2008,06,25,03,26,10.20
2008,06,25,03,27,10.20
2008,06,25,03,28,10.20
2008,06,25,03,29,10.20
2008,06,25,03,30,10.20
2008,06,25,03,31,10.10
2008,06,25,03,32,10.10
2008,06,25,03,33,10.10
2008,06,25,03,34,10.10
2008,06,25,03,35,10.10
2008,06,25,03,36,10.00
2008,06,25,03,37,10.00
2008,06,25,03,38,9.90
2008,06,25,03,39,9.90
2008,06,25,03,40,9.80
2008,06,25,03,41,9.80
2008,06,25,03,42,9.70
2008,06,25,03,43,9.70
2008,06,25,03,44,9.60
2008,06,25,03,45,9.60
2008,06,25,03,46,9.60
2008,06,25,03,47,9.50
2008,06,25,03,48,9.40
2008,06,25,03,49,9.30
2008,06,25,03,50,9.30
2008,06,25,03,51,9.20
2008,06,25,03,52,9.20
2008,06,25,03,53,9.10
2008,06,25,03,54,9.10
2008,06,25,03,55,9.00
2008,06,25,03,56,8.90
2008,06,25,03,57,8.90
2008,06,25,03,58,8.90
2008,06,25,03,59,8.80
2008,06,25,04,00,8.80
2008,06,25,04,01,8.80
2008,06,25,04,02,8.80
2008,06,25,04,03,8.80
2008,06,25,04,04,8.80
2008,06,25,04,05,8.80
2008,06,25,04,06,8.80
2008,06,25,04,07,8.80
2008,06,25,04,08,8.90
2008,06,25,04,09,9.00
2008,06,25,04,10,9.00
2008,06,25,04,11,9.10
2008,06,25,04,12,9.10
2008,06,25,04,13,9.10
2008,06,25,04,14,9.20
2008,06,25,04,15,9.20
2008,06,25,04,16,9.20
2008,06,25,04,17,9.20
2008,06,25,04,18,9.20
2008,06,25,04,19,9.30
2008,06,25,04,20,9.30
2008,06,25,04,21,9.30
2008,06,25,04,22,9.30
2008,06,25,04,23,9.30
2008,06,25,04,24,9.30
2008,06,25,04,25,9.30
2008,06,25,04,26,9.30
2008,06,25,04,27,9.30
2008,06,25,04,28,9.30
2008,06,25,04,29,9.30
2008,06,25,04,30,9.30
2008,06,25,04,31,9.30
2008,06,25,04,32,9.30
2008,06,25,04,33,9.30
2008,06,25,04,34,9.30
2008,06,25,04,35,9.30
2008,06,25,04,36,9.40
2008,06,25,04,37,9.40
2008,06,25,04,38,9.40
2008,06,25,04,39,9.40
2008,06,25,04,40,9.40
2008,06,25,04,41,9.40
2008,06,25,04,42,9.30
2008,06,25,04,43,9.30
2008,06,25,04,44,9.30
2008,06,25,04,45,9.30
2008,06,25,04,46,9.30
2008,06,25,04,47,9.30
2008,06,25,04,48,9.30
2008,06,25,04,49,9.30
2008,06,25,04,50,9.30
2008,06,25,04,51,9.30
2008,06,25,04,52,9.30
2008,06,25,04,53,9.20
2008,06,25,04,54,9.20
2008,06,25,04,55,9.20
2008,06,25,04,56,9.20
2008,06,25,04,57,9.20
2008,06,25,04,58,9.10
2008,06,25,04,59,9.10
2008,06,25,05,00,9.10
2008,06,25,05,01,9.10
2008,06,25,05,02,9.10
2008,06,25,05,03,9.10
2008,06,25,05,04,9.00
2008,06,25,05,05,9.00
2008,06,25,05,06,9.00
2008,06,25,05,07,8.90
2008,06,25,05,08,8.90
2008,06,25,05,09,8.90
2008,06,25,05,10,8.90
2008,06,25,05,11,8.80
2008,06,25,05,12,8.80
2008,06,25,05,13,8.70
2008,06,25,05,14,8.70
2008,06,25,05,15,8.60
2008,06,25,05,16,8.60
2008,06,25,05,17,8.60
2008,06,25,05,18,8.60
2008,06,25,05,19,8.50
2008,06,25,05,20,8.50
2008,06,25,05,21,8.40
2008,06,25,05,22,8.50
2008,06,25,05,23,8.50
2008,06,25,05,24,8.40
2008,06,25,05,25,8.50
2008,06,25,05,26,8.50
2008,06,25,05,27,8.50
2008,06,25,05,28,8.50
2008,06,25,05,29,8.50
2008,06,25,05,30,8.50
2008,06,25,05,31,8.50
2008,06,25,05,32,8.50
2008,06,25,05,33,8.50
2008,06,25,05,34,8.50
2008,06,25,05,35,8.50
2008,06,25,05,36,8.50
2008,06,25,05,37,8.50
2008,06,25,05,38,8.50
2008,06,25,05,39,8.50
2008,06,25,05,40,8.50
2008,06,25,05,41,8.40
2008,06,25,05,42,8.40
2008,06,25,05,43,8.40
2008,06,25,05,44,8.50
2008,06,25,05,45,8.50
2008,06,25,05,46,8.60
2008,06,25,05,47,8.60
2008,06,25,05,48,8.60
2008,06,25,05,49,8.60
2008,06,25,05,50,8.60
2008,06,25,05,51,8.70
2008,06,25,05,52,8.70
2008,06,25,05,53,8.80
2008,06,25,05,54,8.80
2008,06,25,05,55,8.80
2008,06,25,05,56,8.80
2008,06,25,05,57,8.90
2008,06,25,05,58,8.90
2008,06,25,05,59,8.90
2008,06,25,06,00,9.00
2008,06,25,06,01,9.00
2008,06,25,06,02,9.00
2008,06,25,06,03,9.10
2008,06,25,06,04,9.10
2008,06,25,06,05,9.10
2008,06,25,06,06,9.20
2008,06,25,06,07,9.20
2008,06,25,06,08,9.20
2008,06,25,06,09,9.20
2008,06,25,06,10,9.30
2008,06,25,06,11,9.30
2008,06,25,06,12,9.30
2008,06,25,06,13,9.30
2008,06,25,06,14,9.30
2008,06,25,06,15,9.40
2008,06,25,06,16,9.40
2008,06,25,06,17,9.40
2008,06,25,06,18,9.40
2008,06,25,06,19,9.40
2008,06,25,06,20,9.50
2008,06,25,06,21,9.50
2008,06,25,06,22,9.50
2008,06,25,06,23,9.60
2008,06,25,06,24,9.60
2008,06,25,06,25,9.60
2008,06,25,06,26,9.60
2008,06,25,06,27,9.60
2008,06,25,06,28,9.60
2008,06,25,06,29,9.60
2008,06,25,06,30,9.70
2008,06,25,06,31,9.70
2008,06,25,06,32,9.70
2008,06,25,06,33,9.70
2008,06,25,06,34,9.80
2008,06,25,06,35,9.80
2008,06,25,06,36,9.80
2008,06,25,06,37,9.90
2008,06,25,06,38,9.90
2008,06,25,06,39,9.90
2008,06,25,06,40,10.00
2008,06,25,06,41,10.10
2008,06,25,06,42,10.10
2008,06,25,06,43,10.20
2008,06,25,06,44,10.20
2008,06,25,06,45,10.30
2008,06,25,06,46,10.30
2008,06,25,06,47,10.40
2008,06,25,06,48,10.50
2008,06,25,06,49,10.60
2008,06,25,06,50,10.60
2008,06,25,06,51,10.70
2008,06,25,06,52,10.80
2008,06,25,06,53,10.80
2008,06,25,06,54,10.80
2008,06,25,06,55,10.80
2008,06,25,06,56,10.80
2008,06,25,06,57,10.90
2008,06,25,06,58,10.90
2008,06,25,06,59,10.90
2008,06,25,07,00,10.90
2008,06,25,07,01,11.00
2008,06,25,07,02,11.00
2008,06,25,07,03,11.00
2008,06,25,07,04,11.00
2008,06,25,07,05,11.00
2008,06,25,07,06,11.10
2008,06,25,07,07,11.10
2008,06,25,07,08,11.10
2008,06,25,07,09,11.10
2008,06,25,07,10,11.20
2008,06,25,07,11,11.20
2008,06,25,07,12,11.20
2008,06,25,07,13,11.20
2008,06,25,07,14,11.30
2008,06,25,07,15,11.30
2008,06,25,07,16,11.30
2008,06,25,07,17,11.30
2008,06,25,07,18,11.40
2008,06,25,07,19,11.40
2008,06,25,07,20,11.40
2008,06,25,07,21,11.40
2008,06,25,07,22,11.50
2008,06,25,07,23,11.50
2008,06,25,07,24,11.50
2008,06,25,07,25,11.50
2008,06,25,07,26,11.60
2008,06,25,07,27,11.60
2008,06,25,07,28,11.60
2008,06,25,07,29,11.60
2008,06,25,07,30,11.70
2008,06,25,07,31,11.70
2008,06,25,07,32,11.70
2008,06,25,07,33,11.80
2008,06,25,07,34,11.80
2008,06,25,07,35,11.90
2008,06,25,07,36,11.90
2008,06,25,07,37,11.90
2008,06,25,07,38,11.90
2008,06,25,07,39,11.90
2008,06,25,07,40,11.90
2008,06,25,07,41,12.00
2008,06,25,07,42,12.00
2008,06,25,07,43,12.00
2008,06,25,07,44,12.00
2008,06,25,07,45,12.00
2008,06,25,07,46,12.00
2008,06,25,07,47,12.00
2008,06,25,07,48,12.10
2008,06,25,07,49,12.10
2008,06,25,07,50,12.10
2008,06,25,07,51,12.10
2008,06,25,07,52,12.10
2008,06,25,07,53,12.20
2008,06,25,07,54,12.20
2008,06,25,07,55,12.20
2008,06,25,07,56,12.20
2008,06,25,07,57,12.20
2008,06,25,07,58,12.20
2008,06,25,07,59,12.20
2008,06,25,08,00,12.20
2008,06,25,08,01,12.20
2008,06,25,08,02,12.20
2008,06,25,08,03,12.20
2008,06,25,08,04,12.20
2008,06,25,08,05,12.20
2008,06,25,08,06,12.20
2008,06,25,08,07,12.20
2008,06,25,08,08,12.20
2008,06,25,08,09,12.20
2008,06,25,08,10,12.30
2008,06,25,08,11,12.30
2008,06,25,08,12,12.30
2008,06,25,08,13,12.40
2008,06,25,08,14,12.40
2008,06,25,08,15,12.50
2008,06,25,08,16,12.60
2008,06,25,08,17,12.60
2008,06,25,08,18,12.70
2008,06,25,08,19,12.70
2008,06,25,08,20,12.70
2008,06,25,08,21,12.80
2008,06,25,08,22,12.80
2008,06,25,08,23,12.80
2008,06,25,08,24,12.90
2008,06,25,08,25,13.00
2008,06,25,08,26,13.00
2008,06,25,08,27,13.10
2008,06,25,08,28,13.10
2008,06,25,08,29,13.10
2008,06,25,08,30,13.20
2008,06,25,08,31,13.20
2008,06,25,08,32,13.20
2008,06,25,08,33,13.30
2008,06,25,08,34,13.30
2008,06,25,08,35,13.30
2008,06,25,08,36,13.30
2008,06,25,08,37,13.30
2008,06,25,08,38,13.30
2008,06,25,08,39,13.30
2008,06,25,08,40,13.40
2008,06,25,08,41,13.40
2008,06,25,08,42,13.50
2008,06,25,08,43,13.50
2008,06,25,08,44,13.50
2008,06,25,08,45,13.60
2008,06,25,08,46,13.60
2008,06,25,08,47,13.60
2008,06,25,08,48,13.60
2008,06,25,08,49,13.70
2008,06,25,08,50,13.80
2008,06,25,08,51,13.80
2008,06,25,08,52,13.90
2008,06,25,08,53,13.90
2008,06,25,08,54,13.90
2008,06,25,08,55,14.00
2008,06,25,08,56,14.00
2008,06,25,08,57,14.00
2008,06,25,08,58,14.00
2008,06,25,08,59,13.90
2008,06,25,09,00,13.90
2008,06,25,09,01,13.90
2008,06,25,09,02,13.80
2008,06,25,09,03,13.80
2008,06,25,09,04,13.80
2008,06,25,09,05,13.80
2008,06,25,09,06,13.80
2008,06,25,09,07,13.70
2008,06,25,09,08,13.80
2008,06,25,09,09,13.80
2008,06,25,09,10,13.80
2008,06,25,09,11,13.80
2008,06,25,09,12,13.80
2008,06,25,09,13,13.80
2008,06,25,09,14,13.80
2008,06,25,09,15,13.80
2008,06,25,09,16,13.80
2008,06,25,09,17,13.80
2008,06,25,09,18,13.80
2008,06,25,09,19,13.80
2008,06,25,09,20,13.80
2008,06,25,09,21,13.80
2008,06,25,09,22,13.80
2008,06,25,09,23,13.80
2008,06,25,09,24,13.80
2008,06,25,09,25,13.80
2008,06,25,09,26,13.80
2008,06,25,09,27,13.80
2008,06,25,09,28,13.80
2008,06,25,09,29,13.90
2008,06,25,09,30,13.90
2008,06,25,09,31,13.90
2008,06,25,09,32,13.90
2008,06,25,09,33,13.90
2008,06,25,09,34,13.90
2008,06,25,09,35,13.90
2008,06,25,09,36,14.00
2008,06,25,09,37,14.10
2008,06,25,09,38,14.20
2008,06,25,09,39,14.30
2008,06,25,09,40,14.30
2008,06,25,09,41,14.30
2008,06,25,09,42,14.40
2008,06,25,09,43,14.40
2008,06,25,09,44,14.50
2008,06,25,09,45,14.60
2008,06,25,09,46,14.70
2008,06,25,09,47,14.80
2008,06,25,09,48,14.90
2008,06,25,09,49,15.00
2008,06,25,09,50,15.10
2008,06,25,09,51,15.40
2008,06,25,09,52,15.60
2008,06,25,09,53,15.80
2008,06,25,09,54,16.00
2008,06,25,09,55,16.30
2008,06,25,09,56,16.50
2008,06,25,09,57,16.60
2008,06,25,09,58,16.70
2008,06,25,09,59,16.70
2008,06,25,10,00,16.70
2008,06,25,10,01,16.60
2008,06,25,10,02,16.60
2008,06,25,10,03,16.60
2008,06,25,10,04,16.60
2008,06,25,10,05,16.60
2008,06,25,10,06,16.70
2008,06,25,10,07,16.70
2008,06,25,10,08,16.80
2008,06,25,10,09,16.90
2008,06,25,10,10,17.00
2008,06,25,10,11,17.10
2008,06,25,10,12,17.20
2008,06,25,10,13,17.20
2008,06,25,10,14,17.20
2008,06,25,10,15,17.10
2008,06,25,10,16,17.10
2008,06,25,10,17,17.10
2008,06,25,10,18,17.20
2008,06,25,10,19,17.30
2008,06,25,10,20,17.30
2008,06,25,10,21,17.40
2008,06,25,10,22,17.30
2008,06,25,10,23,17.20
2008,06,25,10,24,17.20
2008,06,25,10,25,17.10
2008,06,25,10,26,17.10
2008,06,25,10,27,17.10
2008,06,25,10,28,17.10
2008,06,25,10,29,17.20
2008,06,25,10,30,17.20
2008,06,25,10,31,17.20
2008,06,25,10,32,17.20
2008,06,25,10,33,17.20
2008,06,25,10,34,17.30
2008,06,25,10,35,17.40
2008,06,25,10,36,17.40
2008,06,25,10,37,17.50
2008,06,25,10,38,17.40
2008,06,25,10,39,17.50
2008,06,25,10,40,17.60
2008,06,25,10,41,17.70
2008,06,25,10,42,17.70
2008,06,25,10,43,17.70
2008,06,25,10,44,17.70
2008,06,25,10,45,17.80
2008,06,25,10,46,17.80
2008,06,25,10,47,17.90
2008,06,25,10,48,18.00
2008,06,25,10,49,18.00
2008,06,25,10,50,18.00
2008,06,25,10,51,18.00
2008,06,25,10,52,17.80
2008,06,25,10,53,17.60
2008,06,25,10,54,17.40
2008,06,25,10,55,17.30
2008,06,25,10,56,17.10
2008,06,25,10,57,17.00
2008,06,25,10,58,17.00
2008,06,25,10,59,16.90
2008,06,25,11,00,17.00
2008,06,25,11,01,17.00
2008,06,25,11,02,17.10
2008,06,25,11,03,17.20
2008,06,25,11,04,17.20
2008,06,25,11,05,17.30
2008,06,25,11,06,17.20
2008,06,25,11,07,17.10
2008,06,25,11,08,16.90
2008,06,25,11,09,16.80
2008,06,25,11,10,16.80
2008,06,25,11,11,16.90
2008,06,25,11,12,17.10
2008,06,25,11,13,17.20
2008,06,25,11,14,17.50
2008,06,25,11,15,17.60
2008,06,25,11,16,17.60
2008,06,25,11,17,17.60
2008,06,25,11,18,17.50
2008,06,25,11,19,17.40
2008,06,25,11,20,17.40
2008,06,25,11,21,17.30
2008,06,25,11,22,17.20
2008,06,25,11,23,17.20
2008,06,25,11,24,17.20
2008,06,25,11,25,17.30
2008,06,25,11,26,17.40
2008,06,25,11,27,17.60
2008,06,25,11,28,17.70
2008,06,25,11,29,17.70
2008,06,25,11,30,17.70
2008,06,25,11,31,17.50
2008,06,25,11,32,17.30
2008,06,25,11,33,17.10
2008,06,25,11,34,16.90
2008,06,25,11,35,16.80
2008,06,25,11,36,16.80
2008,06,25,11,37,16.90
2008,06,25,11,38,17.10
2008,06,25,11,39,17.40
2008,06,25,11,40,17.60
2008,06,25,11,41,17.80
2008,06,25,11,42,17.80
2008,06,25,11,43,17.80
2008,06,25,11,44,18.00
2008,06,25,11,45,18.00
2008,06,25,11,46,17.90
2008,06,25,11,47,17.90
2008,06,25,11,48,17.80
2008,06,25,11,49,17.80
2008,06,25,11,50,17.70
2008,06,25,11,51,17.70
2008,06,25,11,52,17.70
2008,06,25,11,53,17.70
2008,06,25,11,54,17.80
2008,06,25,11,55,17.80
2008,06,25,11,56,17.80
2008,06,25,11,57,17.80
2008,06,25,11,58,17.80
2008,06,25,11,59,17.80
2008,06,25,12,00,18.00
2008,06,25,12,01,18.10
2008,06,25,12,02,18.00
2008,06,25,12,03,17.90
2008,06,25,12,04,17.90
2008,06,25,12,05,17.80
2008,06,25,12,06,17.80
2008,06,25,12,07,17.90
2008,06,25,12,08,18.10
2008,06,25,12,09,18.10
2008,06,25,12,10,18.00
2008,06,25,12,11,17.90
2008,06,25,12,12,17.80
2008,06,25,12,13,17.70
2008,06,25,12,14,17.70
2008,06,25,12,15,17.60
2008,06,25,12,16,17.60
2008,06,25,12,17,17.60
2008,06,25,12,18,17.50
2008,06,25,12,19,17.50
2008,06,25,12,20,17.40
2008,06,25,12,21,17.40
2008,06,25,12,22,17.40
2008,06,25,12,23,17.30
2008,06,25,12,24,17.40
2008,06,25,12,25,17.50
2008,06,25,12,26,17.70
2008,06,25,12,27,17.80
2008,06,25,12,28,17.90
2008,06,25,12,29,17.90
2008,06,25,12,30,17.90
2008,06,25,12,31,17.90
2008,06,25,12,32,17.90
2008,06,25,12,33,18.00
2008,06,25,12,34,18.10
2008,06,25,12,35,18.20
2008,06,25,12,36,18.30
2008,06,25,12,37,18.20
2008,06,25,12,38,18.20
2008,06,25,12,39,18.30
2008,06,25,12,40,18.50
2008,06,25,12,41,18.60
2008,06,25,12,42,18.70
2008,06,25,12,43,18.70
2008,06,25,12,44,18.50
2008,06,25,12,45,18.40
2008,06,25,12,46,18.30
2008,06,25,12,47,18.30
2008,06,25,12,48,18.40
2008,06,25,12,49,18.50
2008,06,25,12,50,18.50
2008,06,25,12,51,18.50
2008,06,25,12,52,18.60
2008,06,25,12,53,18.60
2008,06,25,12,54,18.50
2008,06,25,12,55,18.40
2008,06,25,12,56,18.30
2008,06,25,12,57,18.30
2008,06,25,12,58,18.30
2008,06,25,12,59,18.40
2008,06,25,13,00,18.50
2008,06,25,13,01,18.50
2008,06,25,13,02,18.60
2008,06,25,13,03,18.70
2008,06,25,13,04,18.90
2008,06,25,13,05,18.90
2008,06,25,13,06,18.90
2008,06,25,13,07,19.00
2008,06,25,13,08,19.10
2008,06,25,13,09,19.10
2008,06,25,13,10,19.10
2008,06,25,13,11,19.10
2008,06,25,13,12,19.20
2008,06,25,13,13,19.10
2008,06,25,13,14,19.00
2008,06,25,13,15,18.90
2008,06,25,13,16,19.00
2008,06,25,13,17,19.10
2008,06,25,13,18,19.10
2008,06,25,13,19,19.10
2008,06,25,13,20,19.20
2008,06,25,13,21,19.20
2008,06,25,13,22,19.20
2008,06,25,13,23,19.20
2008,06,25,13,24,19.30
2008,06,25,13,25,19.30
2008,06,25,13,26,19.40
2008,06,25,13,27,19.50
2008,06,25,13,28,19.50
2008,06,25,13,29,19.50
2008,06,25,13,30,19.50
2008,06,25,13,31,19.50
2008,06,25,13,32,19.50
2008,06,25,13,33,19.70
2008,06,25,13,34,19.80
2008,06,25,13,35,19.80
2008,06,25,13,36,19.80
2008,06,25,13,37,19.80
2008,06,25,13,38,19.80
2008,06,25,13,39,19.80
2008,06,25,13,40,19.90
2008,06,25,13,41,20.00
2008,06,25,13,42,20.10
2008,06,25,13,43,20.20
2008,06,25,13,44,20.40
2008,06,25,13,45,20.50
2008,06,25,13,46,20.60
2008,06,25,13,47,20.60
2008,06,25,13,48,20.40
2008,06,25,13,49,20.30
2008,06,25,13,50,20.30
2008,06,25,13,51,20.30
2008,06,25,13,52,20.30
2008,06,25,13,53,20.20
2008,06,25,13,54,20.30
2008,06,25,13,55,20.40
2008,06,25,13,56,20.50
2008,06,25,13,57,20.50
2008,06,25,13,58,20.40
2008,06,25,13,59,20.30
2008,06,25,14,00,20.30
2008,06,25,14,01,20.20
2008,06,25,14,02,20.20
2008,06,25,14,03,20.30
2008,06,25,14,04,20.20
2008,06,25,14,05,20.20
2008,06,25,14,06,20.20
2008,06,25,14,07,20.20
2008,06,25,14,08,20.30
2008,06,25,14,09,20.30
2008,06,25,14,10,20.20
2008,06,25,14,11,20.10
2008,06,25,14,12,20.10
2008,06,25,14,13,20.10
2008,06,25,14,14,20.10
2008,06,25,14,15,20.10
2008,06,25,14,16,20.10
2008,06,25,14,17,20.10
2008,06,25,14,18,20.10
2008,06,25,14,19,20.20
2008,06,25,14,20,20.30
2008,06,25,14,21,20.30
2008,06,25,14,22,20.40
2008,06,25,14,23,20.40
2008,06,25,14,24,20.40
2008,06,25,14,25,20.40
2008,06,25,14,26,20.40
2008,06,25,14,27,20.20
2008,06,25,14,28,20.20
2008,06,25,14,29,20.20
2008,06,25,14,30,20.20
2008,06,25,14,31,20.30
2008,06,25,14,32,20.30
2008,06,25,14,33,20.30
2008,06,25,14,34,20.30
2008,06,25,14,35,20.20
2008,06,25,14,36,20.30
2008,06,25,14,37,20.40
2008,06,25,14,38,20.40
2008,06,25,14,39,20.50
2008,06,25,14,40,20.50
2008,06,25,14,41,20.50
2008,06,25,14,42,20.50
2008,06,25,14,43,20.40
2008,06,25,14,44,20.40
2008,06,25,14,45,20.40
2008,06,25,14,46,20.40
2008,06,25,14,47,20.40
2008,06,25,14,48,20.40
2008,06,25,14,49,20.30
2008,06,25,14,50,20.30
2008,06,25,14,51,20.40
2008,06,25,14,52,20.40
2008,06,25,14,53,20.40
2008,06,25,14,54,20.40
2008,06,25,14,55,20.30
2008,06,25,14,56,20.30
2008,06,25,14,57,20.20
2008,06,25,14,58,20.30
2008,06,25,14,59,20.30
2008,06,25,15,00,20.30
2008,06,25,15,01,20.30
2008,06,25,15,02,20.30
2008,06,25,15,03,20.30
2008,06,25,15,04,20.20
2008,06,25,15,05,20.00
2008,06,25,15,06,20.00
2008,06,25,15,07,20.10
2008,06,25,15,08,20.10
2008,06,25,15,09,20.20
2008,06,25,15,10,20.10
2008,06,25,15,11,20.10
2008,06,25,15,12,20.10
2008,06,25,15,13,20.10
2008,06,25,15,14,20.10
2008,06,25,15,15,20.10
2008,06,25,15,16,20.10
2008,06,25,15,17,20.10
2008,06,25,15,18,20.20
2008,06,25,15,19,20.20
2008,06,25,15,20,20.30
2008,06,25,15,21,20.40
2008,06,25,15,22,20.50
2008,06,25,15,23,20.50
2008,06,25,15,24,20.60
2008,06,25,15,25,20.60
2008,06,25,15,26,20.70
2008,06,25,15,27,20.80
2008,06,25,15,28,20.90
2008,06,25,15,29,20.90
2008,06,25,15,30,20.80
2008,06,25,15,31,20.80
2008,06,25,15,32,20.70
2008,06,25,15,33,20.70
2008,06,25,15,34,20.70
2008,06,25,15,35,20.80
2008,06,25,15,36,20.80
2008,06,25,15,37,20.80
2008,06,25,15,38,20.80
2008,06,25,15,39,20.80
2008,06,25,15,40,20.80
2008,06,25,15,41,20.90
2008,06,25,15,42,20.90
2008,06,25,15,43,21.00
2008,06,25,15,44,21.10
2008,06,25,15,45,21.30
2008,06,25,15,46,21.50
2008,06,25,15,47,21.70
2008,06,25,15,48,21.70
2008,06,25,15,49,21.80
2008,06,25,15,50,21.80
2008,06,25,15,51,21.90
2008,06,25,15,52,21.90
2008,06,25,15,53,21.80
2008,06,25,15,54,21.70
2008,06,25,15,55,21.70
2008,06,25,15,56,21.70
2008,06,25,15,57,21.70
2008,06,25,15,58,21.80
2008,06,25,15,59,21.80
2008,06,25,16,00,21.90
2008,06,25,16,01,21.80
2008,06,25,16,02,21.70
2008,06,25,16,03,21.60
2008,06,25,16,04,21.50
2008,06,25,16,05,21.40
2008,06,25,16,06,21.40
2008,06,25,16,07,21.30
2008,06,25,16,08,21.10
2008,06,25,16,09,21.10
2008,06,25,16,10,21.10
2008,06,25,16,11,21.10
2008,06,25,16,12,21.00
2008,06,25,16,13,20.80
2008,06,25,16,14,20.70
2008,06,25,16,15,20.60
2008,06,25,16,16,20.50
2008,06,25,16,17,20.50
2008,06,25,16,18,20.40
2008,06,25,16,19,20.50
2008,06,25,16,20,20.50
2008,06,25,16,21,20.60
2008,06,25,16,22,20.70
2008,06,25,16,23,20.80
2008,06,25,16,24,20.80
2008,06,25,16,25,20.80
2008,06,25,16,26,20.80
2008,06,25,16,27,20.90
2008,06,25,16,28,20.90
2008,06,25,16,29,20.90
2008,06,25,16,30,20.90
2008,06,25,16,31,21.00
2008,06,25,16,32,21.10
2008,06,25,16,33,21.20
2008,06,25,16,34,21.30
2008,06,25,16,35,21.30
2008,06,25,16,36,21.30
2008,06,25,16,37,21.40
2008,06,25,16,38,21.40
2008,06,25,16,39,21.40
2008,06,25,16,40,21.30
2008,06,25,16,41,21.30
2008,06,25,16,42,21.30
2008,06,25,16,43,21.30
2008,06,25,16,44,21.30
2008,06,25,16,45,21.20
2008,06,25,16,46,21.20
2008,06,25,16,47,21.10
2008,06,25,16,48,21.00
2008,06,25,16,49,20.90
2008,06,25,16,50,20.90
2008,06,25,16,51,20.90
2008,06,25,16,52,20.90
2008,06,25,16,53,20.80
2008,06,25,16,54,20.80
2008,06,25,16,55,20.80
2008,06,25,16,56,20.90
2008,06,25,16,57,21.00
2008,06,25,16,58,21.00
2008,06,25,16,59,21.10
2008,06,25,17,00,21.10
2008,06,25,17,01,21.20
2008,06,25,17,02,21.30
2008,06,25,17,03,21.30
2008,06,25,17,04,21.40
2008,06,25,17,05,21.40
2008,06,25,17,06,21.50
2008,06,25,17,07,21.50
2008,06,25,17,08,21.60
2008,06,25,17,09,21.60
2008,06,25,17,10,21.60
2008,06,25,17,11,21.60
2008,06,25,17,12,21.50
2008,06,25,17,13,21.40
2008,06,25,17,14,21.40
2008,06,25,17,15,21.30
2008,06,25,17,16,21.30
2008,06,25,17,17,21.20
2008,06,25,17,18,21.20
2008,06,25,17,19,21.20
2008,06,25,17,20,21.30
2008,06,25,17,21,21.30
2008,06,25,17,22,21.30
2008,06,25,17,23,21.30
2008,06,25,17,24,21.40
2008,06,25,17,25,21.60
2008,06,25,17,26,21.60
2008,06,25,17,27,21.70